Палос Вердес

США     33°48′18″N   118°23′34″W
темп.,
°C
ветер,
м/с
пор.,
м/с
влажн.,
%
обл.,
%
осадки,
мм/ч
давл.,
гПа
погр.,
м
16 октября, сб
сб1623:00+20всв33600 0.0 101612
02:00+20св34450 0.0 101615
05:00+20св33460 0.0 101518
08:00+19всв33470 0.0 101516
11:00+20вюв22480 0.0 101511
14:00+19юз44660 0.0 101431
17:00+18з44770 0.0 101341
20:00+18з57765 0.0 101468
17 октября, вс
вс1723:00+17юз468277 0.0 101576
02:00+17з337447 0.0 101429
05:00+17ю11731 0.0 101411
08:00+17зюз22704 0.0 101517
11:00+17зюз33690 0.0 101647
14:00+17зюз45730 0.0 1014176
17:00+17зюз56780 0.0 1014214
20:00+17з45810 0.0 1015170
18 октября, пн
пн1823:00+16зюз45840 0.0 1016338
02:00+16з55800 0.0 1015432
05:00+16з348319 0.0 1014496
08:00+16з44814 0.1 1015529
11:00+16зюз558121 0.1 1015623
14:00+16зюз65725 0.0 1014568
17:00+16зюз66711 0.0 1014662
20:00+16з33700 0.0 1014481
19 октября, вт
вт1923:00+16юз21680 0.0 1015410
02:00+16юв22700 0.0 1015494
05:00+15юв44720 0.0 1015604
08:00+15вюв44720 0.0 1016565
11:00+16вюв34680 0.0 1017548
14:00+16ю337254 0.0 1016303
17:00+16зюз2271100 0.0 1015267
20:00+16зсз4473100 0.0 1017376
20 октября, ср
ср2023:00+16зсз4375100 0.0 1017263
02:00+16зсз3373100 0.0 1017226
05:00+16з22725 0.0 1017198
08:00+16зсз33735 0.0 1018243
11:00+16з4373100 0.0 1019203
14:00+16з557333 0.0 1018216
17:00+17з6774100 0.0 1017220
20:00+16з6774100 0.0 1018191